Theta_e
345 350 350 352 354 350 350 344 336 332 328 327 324 321 320 320 320 322 320 319 319 317 317 316 315 314 313 313 312 313 312 313 314 314 315 315 313 313 317 317 316 313 313
336 342 348 351 349 348 342 337 335 329 327 325 322 321 320 321 319 320 319 318 318 317 316 315 314 313 312 312 311 313 311 311 313 314 313 311 312 317 316 316 313 311 312
328 338 343 348 348 345 339 336 328 326 324 323 321 321 320 320 320 319 318 317 317 316 314 314 313 312 311 311 310 308 307 310 310 310 311 311 312 312 311 311 311 310 310
325 331 340 344 344 338 334 327 326 325 323 322 321 320 320 321 319 317 317 316 315 314 313 312 311 310 311 309 306 306 306 305 306 306 307 308 309 310 310 310 309 309 307
321 324 337 338 337 334 330 327 326 324 322 321 320 320 319 318 317 316 316 315 315 313 312 311 310 309 308 306 306 305 305 305 305 305 306 305 307 308 307 306 307 306 307
317 321 337 336 333 331 328 326 323 322 321 320 319 318 317 310 313 313 311 310 310 310 311 310 310 309 309 307 306 305 304 304 304 305 305 304 306 306 305 304 304 304 305
315 321 334 333 330 328 325 323 323 321 321 320 319 315 309 306 306 304 302 307 308 308 309 309 309 308 307 308 308 306 305 305 304 304 304 305 305 304 302 302 302 302 303
317 322 334 332 328 326 325 323 323 322 319 317 314 308 306 302 301 300 299 303 305 307 307 308 308 307 307 306 305 305 304 304 304 303 303 304 302 301 300 299 300 300 301
311 319 328 329 322 320 315 313 312 312 310 309 308 307 305 302 301 300 301 302 302 304 305 305 306 306 306 304 303 303 303 304 303 302 302 301 301 301 300 300 300 302 303
302 303 307 308 311 309 309 308 307 307 306 305 304 303 302 302 302 302 300 300 301 302 304 304 303 303 301 301 300 302 302 303 302 301 300 300 300 300 301 300 301 302 303
299 300 300 300 301 301 302 303 303 303 303 303 303 303 302 302 302 301 300 300 300 300 301 302 301 300 299 299 298 298 299 300 299 299 299 300 300 301 300 300 301 304 304
297 299 300 300 300 301 301 302 302 303 303 303 303 304 303 303 302 300 298 297 296 297 298 299 300 299 298 297 297 297 297 297 297 298 299 299 300 300 300 300 300 300 299
297 295 298 300 301 301 301 302 302 303 302 303 303 304 304 302 300 298 297 296 296 296 297 297 296 296 296 296 298 298 298 298 298 299 299 300 300 300 300 300 300 299 299
299 298 299 299 299 299 299 299 298 299 300 301 300 300 301 299 297 295 295 294 295 295 295 294 293 296 298 299 299 299 298 298 298 299 299 299 299 300 301 300 299 299 299
297 298 300 300 301 299 299 299 298 297 297 297 297 298 298 298 293 292 291 291 290 290 290 291 294 298 299 299 299 298 298 297 296 297 297 298 298 299 300 300 299 299 299
296 297 296 298 300 301 300 298 297 297 297 296 296 295 295 294 293 292 291 291 290 290 290 293 296 298 298 298 297 296 296 296 296 296 297 297 297 299 300 299 299 299 299
296 296 297 296 296 298 298 299 298 296 296 296 296 295 294 293 293 293 293 292 293 293 291 295 297 297 297 296 296 295 295 295 295 296 295 297 298 298 299 299 300 300 300
296 296 297 296 296 297 297 297 298 298 299 297 296 295 295 294 293 294 294 294 294 294 294 295 296 296 296 296 295 295 295 295 294 295 295 295 296 297 298 298 299 298 299
296 296 297 297 295 295 296 297 297 297 297 297 297 296 296 294 294 294 293 293 294 294 293 294 295 295 295 295 295 295 295 294 294 294 294 295 296 296 297 297 298 299 299
297 295 296 296 295 295 296 296 296 296 296 296 297 295 294 294 293 293 292 293 292 293 293 292 293 293 293 293 294 294 294 294 293 294 294 295 295 297 296 297 298 299 299
296 296 295 295 295 295 295 295 295 295 295 296 295 293 292 292 292 292 291 291 291 291 291 292 291 291 291 292 292 292 292 292 292 293 293 294 295 296 296 297 297 298 300
295 295 295 295 294 295 294 295 295 294 294 295 295 293 292 291 291 291 290 290 290 290 290 290 290 290 291 291 291 291 291 291 291 292 292 293 294 294 295 296 297 298 299
296 295 294 294 294 294 294 294 294 293 293 294 294 292 291 291 290 290 290 290 290 290 290 290 290 290 290 290 290 290 291 291 291 291 292 292 293 294 294 296 296 298 298
296 295 294 294 293 293 292 292 292 292 292 292 292 292 291 291 290 290 290 289 289 289 289 289 289 289 289 289 289 290 290 290 290 291 291 292 292 293 293 294 296 299 298
296 294 294 293 293 292 291 291 291 290 291 291 291 291 290 290 290 289 288 288 288 288 288 288 288 288 288 288 289 289 289 289 288 289 290 290 291 291 292 292 294 297 298
294 293 293 292 292 292 292 291 290 290 290 291 290 290 290 290 289 288 288 287 287 286 287 287 287 288 288 288 288 288 288 288 287 288 289 289 289 289 290 291 294 296 297
Wind_Speed
36 30 22 25 29 28 25 26 30 31 34 31 29 27 25 22 20 15 17 16 12 9 4 7 4 0 1 4 6 9 12 13 10 19 20 22 23 23 12 12 14 20 22
37 33 24 17 16 22 25 26 28 34 34 31 29 26 24 21 19 16 18 15 13 9 8 4 3 1 2 4 7 9 11 13 14 14 19 23 26 10 10 13 16 13 22
35 34 29 21 22 25 28 23 33 33 31 27 27 25 23 21 18 15 13 13 10 7 5 3 1 0 3 4 5 10 11 12 14 17 18 19 18 18 17 15 17 20 22
38 38 28 24 27 27 29 32 29 30 28 28 26 24 22 20 17 14 12 12 9 7 4 2 1 2 1 4 5 7 10 13 13 15 17 18 19 20 17 19 22 22 24
39 42 31 21 26 32 28 28 27 27 26 26 24 22 21 18 15 15 13 10 8 4 2 1 0 2 7 4 0 4 4 8 9 11 13 15 16 18 16 19 19 24 26
38 40 26 26 22 22 31 30 28 27 27 27 23 23 19 15 16 17 13 9 5 3 3 2 2 6 3 4 6 7 4 6 9 10 10 11 14 14 15 16 19 20 14
38 36 21 27 29 31 29 29 25 27 25 25 23 23 20 16 11 9 9 7 3 2 4 4 4 4 4 6 7 5 8 12 13 15 12 12 12 13 12 16 16 19 22
34 35 22 24 31 30 27 25 23 22 23 23 25 23 21 16 10 8 7 5 1 3 5 6 7 8 8 8 6 6 10 14 12 11 9 12 10 14 17 18 22 24 27
16 2 12 25 26 28 32 30 28 30 25 23 21 19 15 13 8 8 4 4 1 4 6 8 8 9 9 9 9 9 12 12 11 13 11 13 17 19 20 22 19 16 18
29 23 24 24 39 40 36 30 27 26 22 17 14 11 11 9 7 7 5 5 4 7 6 6 2 6 3 3 7 8 11 12 11 14 17 19 21 22 17 19 25 18 18
35 35 25 33 38 41 37 32 27 24 21 17 12 7 6 6 3 4 3 6 5 8 10 9 3 2 7 8 10 13 13 15 19 16 18 19 19 19 17 19 19 15 18
42 33 24 41 24 44 37 32 28 23 19 15 9 7 4 6 5 5 4 7 8 5 7 11 12 16 21 20 19 18 18 18 17 16 17 17 17 19 19 19 20 25 24
36 34 21 35 22 36 30 26 23 19 17 14 10 6 9 10 11 5 6 9 7 9 7 11 15 15 17 15 11 10 11 10 12 13 14 15 16 18 20 20 18 18 20
25 26 27 22 28 29 25 23 22 18 14 17 15 15 11 15 9 5 8 9 9 8 10 15 17 15 13 12 14 11 9 9 11 13 14 18 18 18 18 16 13 17 19
27 20 17 22 19 20 15 12 19 15 10 11 10 8 6 9 12 15 15 13 11 12 16 13 14 13 10 9 8 10 9 8 10 11 15 14 16 15 16 13 11 14 15
25 25 27 22 6 5 12 10 10 11 13 12 13 11 6 6 11 16 16 15 16 14 10 8 9 9 12 9 8 10 11 12 13 13 12 14 15 15 13 11 12 14 14
25 27 14 19 20 18 17 2 7 3 4 4 9 10 9 12 20 20 21 17 15 14 9 10 11 13 10 8 10 10 12 13 13 14 14 14 13 13 13 13 12 11 12
27 26 21 12 16 14 12 9 9 10 4 7 7 6 15 18 24 20 15 14 11 11 8 11 14 13 11 12 10 11 11 12 12 14 11 12 12 11 11 13 12 11 11
19 20 21 18 21 21 18 17 16 15 14 14 4 9 16 20 19 16 18 15 14 12 13 14 14 13 12 13 12 13 12 12 13 14 13 12 13 11 11 12 13 12 13
17 20 20 19 20 19 18 18 17 17 17 15 14 15 17 19 17 18 16 15 15 15 14 15 17 16 14 13 13 14 13 11 11 12 11 11 12 10 11 11 13 13 11
19 18 19 18 18 17 18 16 16 17 15 14 10 17 22 19 17 18 18 16 16 16 15 15 16 15 14 14 14 14 13 13 12 13 13 12 13 11 11 12 13 15 12
21 20 20 18 17 16 16 16 15 15 16 16 15 17 23 18 17 16 18 18 18 16 15 16 16 17 16 15 15 15 14 14 13 12 13 13 13 9 13 12 13 13 14
18 20 20 18 19 18 17 17 16 17 17 17 16 15 16 16 17 18 18 18 17 17 17 16 17 18 17 17 17 17 16 15 14 13 14 14 11 12 12 11 12 11 12
20 19 19 19 18 18 19 19 19 19 18 17 17 17 18 19 21 20 21 21 20 19 19 18 18 21 21 20 20 20 18 16 15 14 12 12 11 10 11 11 15 11 11
22 22 21 20 19 17 18 18 18 20 20 20 20 21 22 22 21 23 24 24 23 23 23 23 21 20 20 20 21 20 20 21 21 18 16 16 11 12 13 14 15 12 10
21 21 21 20 20 19 17 18 19 19 21 21 22 23 25 24 24 26 26 26 27 29 26 24 24 24 24 23 21 20 20 20 20 20 18 19 17 16 16 16 14 14 12
Wind_Direction
333 312 290 251 233 222 188 168 162 168 164 161 163 159 160 164 163 162 167 158 162 159 141 158 126 66 5 323 340 342 340 337 325 314 323 327 326 320 326 351 354 345 340
322 313 279 231 209 176 177 162 172 160 159 160 162 161 159 161 165 153 151 161 163 165 161 144 121 17 346 338 2 342 334 335 329 323 329 324 321 5 357 2 353 343 344
324 307 295 221 200 188 175 174 155 155 157 160 160 162 158 159 158 157 153 146 146 144 156 142 152 294 329 9 8 347 346 342 340 326 311 320 335 21 0 351 354 348 328
325 317 288 221 190 167 163 156 154 159 161 162 161 162 157 156 154 148 142 136 137 147 152 167 207 290 127 342 340 355 345 342 330 331 329 330 339 0 1 358 344 341 332
315 311 281 215 177 167 160 158 161 161 159 158 158 151 148 148 154 150 143 138 132 144 186 201 159 313 314 295 222 315 338 329 338 334 326 331 338 355 8 353 345 334 325
304 301 247 181 158 153 157 160 160 157 162 155 154 146 140 132 145 137 124 124 135 175 221 237 278 293 293 272 297 296 280 299 299 306 303 315 315 339 346 345 330 329 321
291 290 239 161 158 156 152 158 160 159 158 151 144 143 134 126 135 143 140 121 147 238 265 270 281 282 350 295 289 310 293 285 298 302 276 292 311 316 319 320 314 311 303
280 279 235 172 152 148 152 157 154 144 131 130 119 120 125 119 126 120 109 96 162 266 282 279 279 284 278 268 258 276 288 292 302 316 282 284 296 298 305 305 304 302 298
2 72 190 151 122 117 99 102 104 109 104 109 105 105 117 117 124 106 107 151 267 326 282 293 281 275 273 281 268 274 283 287 294 295 306 305 303 304 303 301 298 299 299
24 24 96 100 113 106 111 112 108 109 111 115 105 108 112 117 102 67 45 45 356 328 316 265 223 226 240 262 283 289 285 290 298 292 298 298 298 294 286 289 287 269 278
45 43 38 69 86 91 96 102 101 99 97 90 83 81 82 96 129 101 51 56 10 355 331 320 193 315 322 303 292 284 270 278 287 292 293 292 289 290 287 285 298 296 271
59 50 21 65 58 80 81 81 82 80 81 86 86 54 68 135 127 132 53 30 356 321 299 299 298 301 305 303 296 293 286 286 284 274 276 278 279 286 287 282 286 295 302
60 51 32 58 43 72 72 71 72 69 68 70 75 83 157 153 144 86 53 34 1 329 314 305 302 310 314 315 311 295 292 294 289 282 276 277 279 282 284 284 287 293 297
57 56 58 60 58 61 60 59 57 60 50 46 41 41 21 86 83 14 343 343 331 322 318 299 311 314 306 300 287 293 298 285 275 282 279 284 283 280 283 281 287 298 293
36 35 42 56 54 64 79 79 71 67 76 53 46 25 21 18 9 343 332 329 318 309 307 315 308 302 309 316 333 335 331 316 311 301 295 293 294 294 293 279 285 290 291
29 33 34 36 41 86 105 95 97 84 88 86 76 64 52 28 353 350 347 343 329 321 307 301 304 318 311 321 322 322 322 318 307 301 296 290 283 284 298 302 287 278 284
17 9 26 28 15 38 27 64 182 158 135 92 61 46 29 6 0 349 340 336 345 320 285 292 293 284 299 324 314 297 288 286 301 279 289 294 291 279 287 292 294 295 293
23 9 6 42 17 28 21 17 35 25 56 188 100 86 24 8 354 348 357 349 352 346 317 294 295 306 313 309 301 302 299 292 290 286 300 294 298 289 295 293 296 292 304
37 16 0 17 24 25 13 14 22 15 17 13 27 61 20 358 357 357 356 351 340 328 319 313 313 318 316 309 308 301 297 293 289 289 293 286 280 274 286 291 300 296 297
23 25 14 18 23 17 8 14 12 12 13 4 32 34 10 5 355 350 347 340 334 330 328 322 317 312 311 311 309 307 305 303 303 303 299 295 292 275 287 278 289 283 289
17 19 24 24 18 16 10 8 14 12 0 353 80 44 24 4 342 340 335 329 324 323 320 316 309 308 313 312 309 310 308 302 297 299 295 295 285 290 282 283 283 300 292
19 18 20 26 14 18 14 7 15 4 355 354 4 19 7 352 338 335 333 330 325 318 312 308 306 305 306 301 299 296 292 293 296 296 292 294 302 275 286 278 285 281 294
27 23 22 19 16 14 15 6 12 3 352 357 2 6 344 338 340 336 330 326 323 317 314 311 309 308 302 296 291 288 285 285 284 289 294 291 292 281 289 297 295 286 287
16 25 25 18 18 14 15 4 4 358 354 357 356 351 347 347 341 337 337 334 326 320 316 313 310 306 301 300 294 292 282 281 280 276 275 268 279 289 280 296 285 276 272
11 17 20 15 11 11 10 0 359 354 351 347 349 345 346 341 338 340 338 334 331 327 321 315 313 311 308 304 299 293 285 284 274 269 264 264 269 269 280 278 285 289 273
11 14 13 8 4 359 3 359 355 352 345 344 344 343 339 337 338 337 334 333 330 326 322 318 316 315 312 309 304 299 295 289 280 265 260 249 252 256 259 263 278 262 273